Regional Weather Roundup
Issued by NWS Upton, NY

Current Version | Previous Version | Text Only | Print | Product List | Glossary On
Versions: 1 2 3 4 5 6 7 8 9 10 11 12 13 14 15 16 17 18 19 20 21 22 23 24 25 26 27 28 29 30 31 32 33 34 35 36 37 38 39 40 41 42 43 44 45 46 47 48 49 50
000 ASUS41 KOKX 210708 RWROKX REGIONAL WEATHER ROUNDUP NATIONAL WEATHER SERVICE NEW YORK NY 200 AM EST SAT JAN 21 2017 NOTE: "FAIR" INDICATES FEW OR NO CLOUDS BELOW 12,000 FEET WITH NO SIGNIFICANT WEATHER AND/OR OBSTRUCTIONS TO VISIBILITY. NYZ071-072-176-178-NJZ106-104-210800- NEW YORK CITY METRO AREA CITY SKY/WX TMP DP RH WIND PRES REMARKS Central Park CLOUDY 42 40 92 W6G16 29.94S FOG Wall St Helipt CLOUDY 42 40 92 W6 29.93F LaGuardia APRT CLOUDY 44 39 82 SW10 29.92S Kennedy INTL CLOUDY 43 43 100 SW6 29.94S FOG Breezy Point N/A 41 N/A N/A SW2 N/A Newark/Liberty CLOUDY 42 40 92 SW7 29.92F FOG Teterboro CLOUDY 42 41 96 S7 29.91F FOG $$ NYZ177-179-078>081-210800- LONG ISLAND NEW YORK CITY SKY/WX TMP DP RH WIND PRES REMARKS Jones Beach N/A 41 N/A N/A SW5 N/A Matinecock PT NOT AVBL Farmingdale CLOUDY 42 41 96 W8 29.92S MacArthur/ISP CLOUDY 42 42 100 SW3 29.92S FOG Shirley CLOUDY 42 42 100 SW5 29.93S FOG Westhampton CLOUDY 43 41 93 SW5 29.94R FOG Southampton NOT AVBL Bridgehampton NOT AVBL East Hampton DRIZZLE 42 41 97 CALM 29.92R Montauk N/A 44 43 96 VRB5 29.93R $$ NYZ052-065-067-210800- HUDSON VALLEY CITY SKY/WX TMP DP RH WIND PRES REMARKS White Plains FOG 39 37 92 CALM 29.90S VSB 1/2 Newburgh CLOUDY 39 39 100 CALM 29.91R FOG Montgomery CLOUDY 39 38 96 S3 29.88S FOG Poughkeepsie CLOUDY 37 36 96 CALM 29.90R FOG Albany CLOUDY 39 34 82 S9 29.88R WCI 33 $$ NJZ001-105-106-008-010-013-015-019>022-104-210800- NEW JERSEY CITY SKY/WX TMP DP RH WIND PRES REMARKS Newark/Liberty CLOUDY 42 40 92 SW7 29.92F FOG Teterboro CLOUDY 42 41 96 S7 29.91F FOG Caldwell CLOUDY 41 40 96 SW5 29.92F FOG Somerville CLOUDY 41 39 93 CALM 29.91S FOG Linden CLOUDY 42 40 92 CALM 29.93S FOG Sussex CLOUDY 38 38 100 SW5 29.90S FOG WCI 34 Andover N/A 38 37 97 CALM 29.90S Trenton CLOUDY 41 41 100 CALM 29.92S FOG Millville CLOUDY 43 43 100 CALM 29.93R FOG Atlantic City CLOUDY 43 41 93 CALM 29.93S FOG Wrightstown CLOUDY 41 40 96 CALM 29.90S Toms River CLOUDY 41 41 100 CALM 29.94S FOG Belmar CLOUDY 41 41 100 CALM 29.94S FOG $$ PAZ047>061-062-071-210800- EASTERN PENNSYLVANIA CITY SKY/WX TMP DP RH WIND PRES REMARKS Philadelphia CLOUDY 42 41 96 CALM 29.94S FOG Allentown FOG 39 37 92 N3 29.91S VSB 1/2 Scranton FOG 39 39 100 CALM 29.88R VSB 3/4 $$ CTZ002-004>006-009-010-012-RIZ004-006-007-MAZ004-011-015-210800- SOUTHERN NEW ENGLAND IN CT CITY SKY/WX TMP DP RH WIND PRES REMARKS Bradley INTL CLOUDY 37 36 96 S3 29.91R FOG Hartford CLOUDY 37 37 100 S3 29.92R FOG Danbury CLOUDY 38 36 92 CALM 29.91S FOG Wtrbury/Oxford CLOUDY 37 34 87 CALM 29.90S VSB<1/4 Bridgeport CLOUDY 41 38 89 CALM 29.92S Meriden CLOUDY 39 36 89 CALM 29.91R New Haven CLOUDY 39 38 96 CALM 29.92R Chester CLOUDY 41 39 93 SW8 29.90S FOG Groton CLOUDY 42 40 92 S5 29.92R Wilimantic CLOUDY 38 37 97 CALM 29.92R FOG IN RI CITY SKY/WX TMP DP RH WIND PRES REMARKS Providence CLOUDY 39 33 79 CALM 29.92S Block Island NOT AVBL Westerly CLOUDY 43 39 86 SE3 29.92R IN MA CITY SKY/WX TMP DP RH WIND PRES REMARKS Boston CLOUDY 37 37 100 SW6 29.92S WCI 32 Worcester FOG 33 32 96 SW3 29.87S VSB 3/4 Westfield CLOUDY 36 36 100 S3 29.89S FOG Provincetown CLOUDY 40 35 83 SW6 29.93S Nantucket CLOUDY 42 34 73 S7 29.93S $$ ANZ330-335-338-340-345-350-353-355-210800- COASTAL MARINE OBSERVATIONS STATION/POSITION TIME SKY/WX TEMP WIND PRES VSBY WAVE AIR SEA DIR/SP/G HT/PER (UTC) (F) (DEG/KT/KT) (MB) (MI) (FT/S) NY HARB ENTRANCE 0550 44 43 220/ 4/ 6 1013.5 3/12 20 S FIRE ISLAND 0650 46 45 230/ 8/ 8 1012.9 3/11 GREAT SOUTH BAY NOT AVBL 23 SSW MONTAUK P 0550 46 47 170/ 8/ 8 1013.1 3/ 8 15 E BARNEGAT LI 0630 47 N/A 4/12 HUDSON CANYON 0550 50 51 1013.3 4/10 KINGS POINT 0648 42 39 1013.0 EXECUTION ROCKS 0645 39 280/ 2/ 2 N/A CENTRAL LI SOUND 0615 41 200/ 6/ 8 N/A 0 EASTERN LI SOUND NOT AVBL ROBBINS REEF 0648 42 230/ 5/ 6 1013.4 $$ >>>>>>>>>>>>>>>>>>>>>>>>>>>> KEY <<<<<<<<<<<<<<<<<<<<<<<<<<< > < > SKY/WX - Sky Condition/Present Weather < > TMP - Temperature in Fahrenheit < > DP - Dew Point in Fahrenheit < > RH - Relative Humidity in Percent < > WIND - Direction (from) and Speed in MPH < > PRES - Mean Sea Level Pressure (inches of Hg) < > WCI - Wind Chill Index < > VSB - VISIBILITY IN MILES < > HX - HEAT INDEX < > TC - TEMPERATURE IN CELSIUS < > VRB - VARIABLE WIND DIRECTION < > < >>>>>>>>>>>>>>>>>>>>>>>>>>>> KEY <<<<<<<<<<<<<<<<<<<<<<<<<<<

USA.gov is the U.S. government's official web portal to all federal, state and local government web resources and services.